Regional Weather Roundup
Issued by NWS

Home | Current Version | Previous Version | Graphics & Text | Print | Product List | Glossary On
Versions: 1 2 3 4 5 6 7 8 9 10 11 12 13 14 15 16 17 18 19 20 21 22 23 24 25 26 27 28 29 30 31 32 33 34 35 36 37 38 39 40 41 42 43 44 45 46 47 48 49 50
723
ASUS43 KTOP 261859
RWRKS

WEATHER ROUNDUP FOR KANSAS
NATIONAL WEATHER SERVICE GOODLAND KS
200 PM CDT WED APR 26 2017

NOTE:  "FAIR" INDICATES FEW OR NO CLOUDS BELOW 12,000 FEET WITH NO
SIGNIFICANT WEATHER AND/OR OBSTRUCTIONS TO VISIBILITY.

KSZ001>006-013>018-027>032-041>047-262000-
NORTHWEST KANSAS

CITY           SKY/WX    TMP DP  RH WIND       PRES   REMARKS
GOODLAND       SUNNY     51  30  44 N22G30    29.74F
HAYS           CLOUDY    51  33  50 N14G23    29.73F
HILL CITY      PTSUNNY   53  32  44 NW13G23   29.74F
RUSSELL        CLOUDY    50  32  50 N18G28    29.72F
$$

KSZ061>065-074>080-084>089-262000-
SOUTHWEST KANSAS

CITY           SKY/WX    TMP DP  RH WIND       PRES   REMARKS
DODGE CITY     MOSUNNY   54  31  41 N21G28    29.74F
ELKHART          N/A     52  30  43 N17         N/A
GARDEN CITY    SUNNY     54  31  41 N21G29    29.74F
GREAT BEND     CLOUDY    50  34  54 NW13G22   29.72F
LIBERAL        MOSUNNY   56  34  43 N16G26    29.76F
$$

KSZ066>073-081>083-090>101-262000-
SOUTHEAST KANSAS

CITY           SKY/WX    TMP DP  RH WIND       PRES   REMARKS
CHANUTE        CLOUDY    47  41  80 NW13      29.63S
COFFEYVILLE    CLOUDY    48  42  80 N16G25    29.63F
HUTCHINSON     PTSUNNY   53  35  50 NW16G23   29.69F
MEDICINE LODGE   N/A     53  35  50 NW14G22   29.71F
NEWTON         CLOUDY    47  35  63 NW18G24   29.69R
PARSONS        CLOUDY    47  41  80 N14       29.64F
WICHITA INTL   LGT RAIN  49  36  61 NW18G25   29.69S
WICHITA JABRA    N/A     49  37  63 NW17      29.68S
WICHITA MCCONL CLOUDY    50  36  57 NW15      29.68S
WINFIELD       CLOUDY    50  39  66 NW16      29.69S
$$

KSZ007>012-019>026-033>040-048>060-102>105-262000-
NORTHEAST KANSAS

CITY           SKY/WX    TMP DP  RH WIND       PRES   REMARKS
CONCORDIA      CLOUDY    47  35  63 N17G24    29.70S
EMPORIA        CLOUDY    49  38  65 NW13G21   29.64F
LAWRENCE       CLOUDY    49  39  68 N12       29.64F
MANHATTAN      CLOUDY    51  36  56 N10       29.68F
OLATHE IND     LGT RAIN  45  39  79 NW12      29.63F
OLATHE EXE     CLOUDY    45  39  79 NW10      29.62F
SALINA         CLOUDY    53  36  52 N21G28    29.69F
TOPEKA BILLARD CLOUDY    52  39  61 N12       29.64R
TOPEKA FORBES  CLOUDY    51  37  58 NW12      29.64R
$$




USA.gov is the U.S. government's official web portal to all federal, state and local government web resources and services.